GFSGL_850_rhum_159.txt.gz
RH
10 11 12 13 15 21 25 20 14 7 6 8 8 8 9 14 30 76 93 94 94 95 96 99 100 100 100 100 100 100 100 100 99 100 100 98 100 100 100 100 99 90 94
8 13 27 34 36 34 42 38 28 13 7 11 7 4 6 8 12 17 24 53 92 94 96 94 95 97 100 100 100 100 100 100 100 100 100 98 100 100 97 99 100 100 99
32 19 35 48 51 49 56 56 47 13 8 9 8 5 6 7 8 10 17 22 20 35 75 88 97 96 96 97 100 100 100 100 100 100 100 100 98 100 100 98 100 99 99
45 44 42 54 57 56 63 61 51 30 10 7 8 8 6 8 8 8 7 10 13 13 12 24 35 47 85 97 97 97 98 98 99 98 100 99 98 99 100 98 100 100 97
40 48 47 49 54 53 52 47 39 28 14 7 8 8 8 10 14 9 7 7 7 7 7 9 15 38 64 82 78 94 96 96 97 98 96 97 98 98 98 99 97 98 98
47 52 54 58 56 49 43 36 25 17 11 6 6 9 10 18 59 11 7 6 6 6 7 8 11 14 17 15 32 21 42 33 61 88 96 94 96 96 96 98 98 98 97
55 59 60 61 61 55 40 31 20 11 7 6 6 6 7 14 16 14 9 7 7 9 14 10 11 16 12 15 16 14 17 20 19 29 64 48 60 66 61 80 95 94 95
55 58 59 52 54 54 45 35 24 14 11 11 9 7 6 6 7 12 11 10 10 16 25 33 25 21 22 17 12 13 16 26 24 16 19 29 29 34 42 60 86 100 82
49 45 45 42 38 37 38 36 38 33 34 32 24 14 12 9 6 8 9 11 15 20 38 91 68 66 72 35 26 27 32 35 26 22 23 20 13 14 16 17 17 29 84
38 30 25 24 28 31 37 39 44 49 57 58 44 24 14 13 10 6 11 19 23 27 44 66 100 100 88 35 28 44 46 56 36 23 20 23 22 34 31 35 48 56 66
28 25 21 21 21 26 32 42 52 57 54 68 54 43 22 10 8 8 8 22 47 59 72 91 100 100 100 64 38 39 58 49 41 33 27 24 19 18 25 42 85 91 98
25 20 17 16 17 25 34 48 52 55 75 88 66 45 28 13 10 9 10 27 60 70 84 93 99 100 76 93 69 65 45 38 43 47 42 41 40 43 44 50 92 99 100
28 22 18 18 22 33 38 40 41 50 59 64 66 36 24 16 12 11 15 38 62 75 88 86 82 82 85 82 78 69 51 46 53 50 58 60 61 59 46 40 44 68 79
36 31 27 30 39 49 41 35 20 27 28 31 32 32 25 18 16 16 29 44 65 78 82 88 83 81 95 95 90 84 78 70 68 70 82 75 54 42 44 49 36 33 32
52 45 39 50 47 55 49 35 20 17 15 14 17 19 24 27 31 37 50 60 79 89 96 88 86 82 84 99 100 94 87 76 73 80 76 72 65 62 67 69 66 63 56
60 60 54 46 55 57 59 55 54 54 57 44 43 49 58 57 51 58 63 80 100 97 94 91 90 87 86 94 98 100 99 98 83 82 80 79 76 73 73 62 68 77 74
59 57 55 60 64 63 61 61 60 66 69 68 73 76 84 78 70 70 78 80 94 80 81 89 88 90 90 89 88 91 93 95 99 100 99 92 88 78 74 78 71 75 75
58 57 58 60 62 67 71 62 63 74 61 67 81 87 94 90 83 99 78 90 91 86 84 84 82 85 90 90 89 92 90 88 91 97 100 100 100 98 88 86 76 73 76
61 61 62 63 60 66 67 64 62 61 75 85 93 98 100 96 95 91 90 92 94 90 91 90 81 83 86 86 88 88 90 88 87 89 99 100 99 100 100 100 94 80 82
68 68 66 67 68 55 53 56 78 91 95 100 100 99 98 98 98 86 84 96 93 92 95 94 87 87 84 83 79 78 75 72 68 66 72 91 99 100 100 100 100 99 94
42 52 55 61 63 77 83 93 97 100 98 98 99 99 100 98 93 95 94 96 90 93 96 92 88 87 73 65 68 67 70 76 71 71 73 77 82 82 87 99 100 100 100
64 83 85 82 80 100 100 96 93 99 99 96 99 98 98 97 99 97 94 97 95 95 94 87 82 67 59 58 56 62 66 65 62 66 68 66 64 63 62 59 63 98 95
95 98 95 90 93 100 100 100 94 90 96 100 100 99 95 97 96 94 95 95 90 80 75 67 56 52 50 53 60 67 64 64 66 70 70 65 64 62 62 66 84 97 100
96 100 100 100 99 99 97 88 100 100 100 98 95 95 93 94 94 90 87 76 64 63 56 51 49 50 53 56 65 64 65 65 68 69 69 65 63 63 66 92 100 100 100
57 83 95 96 97 88 88 94 99 98 96 95 95 96 90 85 78 66 52 46 47 48 48 49 51 51 52 55 61 61 65 68 70 74 70 68 67 69 82 100 100 100 100
79 91 93 91 94 97 98 96 96 97 99 99 96 83 71 46 39 37 40 44 48 49 50 51 52 53 55 59 62 64 65 65 69 71 72 70 68 69 77 97 100 100 98

GFSGL_850_rhum_162.txt.gz
RH
15 13 18 19 18 23 23 16 8 6 8 7 5 4 4 5 10 11 13 31 79 95 98 100 100 98 99 100 100 100 100 100 100 100 100 100 100 99 99 99 100 98 100
11 24 32 31 31 38 35 24 14 7 8 10 7 4 4 5 5 6 8 9 9 19 53 88 100 100 95 95 100 100 100 100 100 100 100 100 100 100 100 98 100 100 100
21 36 42 43 43 46 40 30 20 8 7 10 10 6 5 6 6 6 6 7 8 9 15 29 53 91 100 100 99 96 98 100 100 99 100 99 100 100 100 99 100 100 100
42 45 45 45 47 46 45 37 24 12 7 9 10 12 6 7 6 6 5 5 7 9 14 23 48 67 71 87 100 98 98 96 96 96 97 97 99 100 100 100 99 100 100
47 51 48 49 48 43 40 30 19 11 6 8 10 13 10 9 7 6 7 6 6 8 11 16 25 80 98 64 40 66 93 96 96 96 95 95 96 96 95 100 97 98 98
46 52 55 50 45 38 32 24 10 8 6 6 6 8 8 11 8 7 7 8 7 8 10 16 17 20 23 30 16 20 14 21 42 79 95 95 95 96 96 95 97 97 96
52 55 54 48 47 41 27 18 9 8 8 7 6 6 6 7 8 7 10 10 14 13 16 15 18 21 21 23 22 14 14 16 15 31 41 66 42 73 98 96 95 91 96
54 53 52 49 45 38 32 24 17 19 17 12 11 10 7 7 9 11 12 16 22 31 35 37 18 17 22 22 22 20 17 15 21 20 26 28 34 36 63 94 97 96 37
47 44 46 46 38 34 33 35 37 39 37 24 16 12 12 9 6 11 15 19 26 38 59 99 58 28 18 18 16 22 27 28 25 23 21 32 26 31 33 31 33 64 62
46 41 39 36 33 31 32 39 45 49 49 45 28 16 12 12 9 9 18 29 34 41 59 74 100 82 42 24 16 19 20 31 24 22 22 25 29 43 40 45 55 66 61
39 31 24 26 28 32 37 43 47 49 48 44 38 23 14 12 12 11 24 39 57 55 60 79 97 100 80 57 44 33 31 29 22 22 22 22 26 35 68 87 81 76 84
31 26 24 23 25 31 36 40 49 48 39 31 38 24 16 14 12 15 31 53 72 68 74 88 98 100 100 82 75 71 50 32 24 19 17 20 24 26 36 55 87 90 86
27 23 21 24 32 38 41 39 38 38 38 33 30 23 16 16 17 21 37 62 74 77 85 87 86 92 96 98 95 89 77 60 49 39 41 40 37 35 29 27 31 40 44
31 31 30 34 36 39 44 37 24 24 21 23 24 17 18 23 25 33 46 61 70 78 81 82 82 81 92 100 97 98 94 84 79 81 77 72 56 40 31 27 24 24 23
40 44 42 44 42 47 52 47 26 21 22 20 19 24 40 38 37 45 60 90 87 83 82 79 77 80 81 89 93 93 95 90 97 100 99 90 85 75 61 51 39 32 32
50 54 51 52 48 59 58 54 50 51 56 48 48 54 60 64 63 68 71 76 92 73 72 71 77 75 76 80 77 72 73 78 94 94 100 100 99 97 91 84 75 62 48
54 57 58 59 55 57 58 57 57 60 69 64 64 74 85 85 82 92 88 86 84 81 78 80 81 77 73 71 68 72 72 75 78 87 98 98 94 97 100 100 93 84 72
62 61 59 57 59 63 65 65 69 68 73 58 67 80 93 97 93 96 86 84 76 78 82 83 87 84 76 72 70 70 70 72 65 63 65 84 100 97 94 96 100 100 93
58 58 58 59 63 65 65 70 75 78 62 71 86 96 100 100 99 95 92 86 78 81 82 84 86 77 68 67 59 60 58 58 62 54 55 60 76 94 100 100 100 98 99
61 61 64 66 68 71 77 74 63 64 82 93 90 96 95 98 96 91 92 90 90 92 89 87 85 73 65 53 44 44 44 43 44 46 48 52 60 67 74 75 80 94 100
61 68 72 75 72 69 70 67 80 92 99 100 100 98 97 96 98 99 98 97 96 93 91 89 84 66 47 38 38 39 40 41 43 44 46 48 50 50 53 53 54 57 61
38 47 58 66 71 80 81 89 96 100 99 100 100 100 97 98 98 99 100 98 94 93 90 81 67 46 40 40 41 42 43 43 43 45 46 47 49 50 51 52 54 58 74
38 62 89 92 81 83 99 100 99 98 98 96 100 99 98 97 98 99 97 93 87 84 77 61 48 45 44 45 46 47 48 48 49 51 51 51 52 54 56 56 63 86 96
51 80 94 94 91 96 100 98 96 98 100 98 97 97 97 98 100 95 89 78 72 62 55 49 47 47 47 49 50 51 52 54 56 58 58 58 61 62 62 65 88 100 100
52 80 90 98 99 99 97 91 94 97 96 97 97 98 100 100 97 88 67 56 50 50 49 50 50 50 50 53 54 55 56 60 64 66 67 68 67 70 70 69 83 100 100
54 86 100 100 97 94 95 96 97 97 97 98 100 100 98 79 57 43 42 46 47 50 51 52 52 54 55 58 60 61 65 68 69 72 74 77 76 79 83 83 87 98 100

GFSGL_850_rhum_165.txt.gz
RH
16 17 20 21 22 22 18 10 6 7 7 6 4 4 4 4 4 5 5 8 10 18 58 92 98 100 100 98 98 99 100 100 100 100 100 100 100 100 99 99 100 100 99
16 22 28 28 25 23 24 16 7 6 8 8 6 4 4 4 4 4 4 7 9 10 13 22 77 98 100 100 99 98 98 99 98 98 99 98 100 100 100 100 100 100 100
17 29 34 33 33 29 27 22 10 6 8 10 10 5 4 5 5 4 5 6 7 9 10 15 25 35 81 99 100 100 100 98 97 97 96 98 97 97 98 100 100 100 100
28 34 38 35 38 36 30 22 11 6 9 10 11 10 6 5 6 7 6 6 6 8 8 10 22 40 30 33 81 98 100 100 99 97 97 96 96 96 96 97 97 98 98
32 38 42 39 39 39 31 17 10 6 8 10 11 9 6 6 6 10 10 8 7 8 12 12 16 21 30 39 24 20 48 87 95 98 99 96 94 96 95 96 95 97 97
36 40 40 44 47 41 28 12 8 7 7 7 7 8 6 7 8 10 14 14 12 10 11 16 17 19 16 14 12 16 9 15 20 31 49 79 96 98 96 95 96 96 95
43 44 47 50 49 38 23 10 12 11 11 10 9 9 8 10 13 15 17 19 23 22 20 14 13 19 20 18 16 13 11 13 16 28 29 55 43 79 96 91 79 81 96
46 46 51 52 50 41 30 21 22 21 14 14 15 14 12 10 15 19 22 24 28 35 44 30 19 17 18 19 17 16 15 16 18 24 35 49 48 54 58 88 98 74 43
48 49 51 52 48 43 42 37 41 42 26 18 15 15 16 16 12 19 25 27 28 34 46 82 32 26 24 18 16 19 20 22 28 28 29 36 30 36 43 42 38 51 68
48 48 50 49 47 43 44 47 53 54 42 31 17 15 15 19 16 19 32 38 39 41 43 53 90 51 36 25 19 19 18 24 18 18 20 22 26 29 26 28 40 37 42
50 51 50 48 41 42 46 50 50 50 47 37 25 17 15 15 19 21 34 45 56 54 56 66 87 99 60 45 33 30 33 29 22 18 17 19 20 23 27 35 43 46 51
56 49 41 34 39 47 53 51 51 51 48 42 39 23 16 16 20 35 54 63 73 65 66 72 89 92 95 63 56 54 40 33 28 24 21 21 22 25 30 32 40 45 49
51 37 31 34 40 46 51 58 53 49 45 42 40 29 17 20 27 41 58 66 70 69 74 77 77 78 79 74 77 73 63 50 42 30 43 47 46 36 28 25 31 35 39
38 34 30 30 37 49 55 58 51 47 41 36 28 18 24 31 36 48 58 72 74 71 78 86 80 80 80 82 78 73 72 72 69 68 72 70 56 42 34 32 25 21 21
32 32 35 39 42 50 60 56 38 21 23 23 22 29 43 46 48 62 93 88 77 73 73 66 62 61 58 61 70 62 60 63 70 86 90 81 71 60 53 46 39 36 33
40 40 42 42 49 56 58 58 50 52 58 55 50 55 65 68 75 90 92 100 84 82 80 70 74 74 64 58 59 55 52 50 55 70 87 90 90 91 84 73 62 54 54
54 50 52 51 57 55 55 60 62 62 65 69 63 68 84 88 86 94 97 91 88 84 80 76 75 76 69 63 57 52 51 53 59 54 57 60 70 90 92 94 91 85 78
57 58 57 56 57 56 60 64 69 72 75 76 65 73 92 98 97 92 90 92 91 86 84 83 78 80 74 62 56 49 50 48 47 46 51 51 51 61 77 90 96 98 98
58 61 63 62 60 60 65 70 74 79 82 77 71 86 97 100 98 94 95 94 93 92 89 86 82 77 69 58 46 42 43 43 41 42 43 44 45 47 50 54 60 65 76
59 59 60 60 61 64 70 73 78 84 72 76 88 88 93 96 96 99 98 96 95 95 90 85 78 65 56 44 40 40 41 43 42 42 41 42 43 45 47 49 49 48 49
60 62 65 68 70 73 81 85 78 73 83 89 92 92 90 90 99 98 96 96 96 93 85 76 63 54 42 40 40 41 41 42 43 44 45 46 47 48 49 51 53 57 62
58 58 70 79 81 76 78 84 88 90 90 94 97 98 95 95 97 97 97 98 95 87 74 61 49 42 41 42 42 43 44 45 46 47 48 49 50 53 54 55 56 61 81
38 39 52 66 77 79 81 86 90 94 98 100 99 98 99 98 98 99 100 97 87 72 60 50 46 44 45 46 46 47 47 49 51 51 52 53 54 56 58 59 60 69 94
34 50 70 84 90 82 86 92 100 98 94 95 99 98 98 99 99 100 100 90 74 55 46 45 45 48 49 50 50 51 53 55 56 57 58 60 61 63 63 64 66 72 99
37 67 90 93 91 94 97 99 97 92 96 98 98 98 98 100 100 99 82 60 47 45 45 48 51 52 53 54 55 56 58 60 62 64 66 68 70 72 72 72 74 74 84
37 62 71 72 90 98 98 94 93 96 99 98 98 100 100 99 79 52 46 45 45 47 52 54 55 56 58 59 60 60 62 64 66 69 71 74 77 78 82 87 88 85 83

GFSGL_850_rhum_171.txt.gz
RH
13 10 14 18 19 15 11 7 6 6 7 6 4 4 5 5 5 5 5 6 6 9 9 13 35 72 87 92 92 95 97 96 98 97 97 97 98 97 98 99 100 99 100
13 16 21 22 20 17 12 7 6 8 10 8 5 5 6 7 7 6 6 7 7 8 8 9 9 11 32 78 92 93 95 96 96 96 96 96 96 97 98 98 98 98 98
16 20 21 24 25 19 12 7 7 10 11 10 6 6 8 10 11 9 8 8 8 8 8 8 9 10 9 12 35 77 93 96 96 97 96 96 96 97 97 99 100 100 99
20 22 23 26 30 24 13 8 9 11 11 10 7 7 9 13 15 15 13 10 9 9 8 8 8 7 8 10 10 11 23 54 74 84 91 90 90 94 96 96 98 96 96
22 31 33 33 34 26 14 8 9 12 11 10 9 10 12 14 18 22 21 17 13 11 10 9 9 9 8 7 8 8 8 10 14 25 32 47 54 61 69 72 94 97 94
31 40 42 39 36 26 12 9 11 12 12 13 14 16 17 19 21 24 25 26 21 16 13 12 10 10 11 10 9 9 8 9 14 29 45 38 37 52 64 77 38 56 92
45 54 45 43 38 25 11 12 14 16 17 18 18 19 20 22 24 26 27 28 29 26 20 18 15 13 12 11 11 10 10 9 11 26 32 43 34 33 36 51 82 40 54
82 48 46 45 41 25 15 18 19 19 19 19 20 22 22 22 26 29 30 31 32 33 33 24 23 18 15 13 12 11 11 11 12 12 14 17 21 24 26 31 62 95 55
72 44 47 46 44 33 25 26 28 22 18 16 17 20 21 21 23 29 33 36 36 38 53 60 36 28 18 17 16 16 16 16 17 15 13 13 13 12 11 12 15 30 70
42 44 47 47 49 42 38 36 42 36 25 16 14 15 15 22 24 29 37 40 40 49 44 70 58 44 23 15 19 21 18 22 21 18 14 12 11 10 10 10 12 16 17
44 47 48 52 51 47 43 44 46 38 31 23 17 15 16 20 28 28 37 46 47 44 56 72 77 64 60 23 22 22 25 30 26 24 20 18 15 14 14 14 14 15 16
46 48 51 53 51 43 38 42 46 41 36 32 28 19 17 22 29 34 44 51 52 47 48 48 47 40 38 26 22 28 29 30 30 29 27 28 30 31 29 24 21 21 20
48 51 53 54 52 41 37 41 45 45 45 38 33 25 19 27 36 43 55 55 56 56 57 53 46 40 35 29 24 28 27 25 26 29 34 42 41 41 43 38 37 34 29
51 55 56 55 49 42 45 48 47 44 41 38 30 28 23 34 44 54 66 66 69 67 67 62 51 41 34 31 32 30 27 25 25 26 28 33 37 42 60 36 46 36 45
54 58 59 54 44 42 45 47 49 46 39 34 32 32 29 42 49 62 72 77 76 74 74 73 55 41 33 31 32 32 29 28 28 27 28 28 29 34 49 73 85 84 100
58 61 52 40 42 44 46 50 50 47 39 46 51 47 47 54 67 79 85 85 85 83 82 81 62 47 38 33 33 33 30 29 29 29 30 30 29 29 30 43 47 77 100
61 53 42 40 36 40 44 50 53 51 54 61 64 63 65 68 80 88 100 96 96 90 88 85 71 55 48 45 39 35 33 32 32 33 32 32 31 31 32 33 36 40 52
49 41 37 36 38 41 46 53 56 61 66 71 75 79 82 78 86 98 100 98 96 94 92 88 76 58 48 44 41 37 37 36 36 36 36 35 35 36 36 36 37 37 38
56 57 56 52 52 52 58 60 63 69 72 76 83 90 90 83 98 100 99 100 98 97 95 90 78 58 44 41 38 38 40 40 40 40 40 41 40 41 42 43 43 43 44
60 58 56 58 60 62 64 65 66 69 74 78 84 96 87 98 99 96 100 100 100 99 97 94 81 57 44 42 40 42 43 44 45 45 46 47 47 48 48 48 48 49 59
58 58 60 63 66 68 69 70 71 71 77 82 95 88 89 100 100 99 100 99 99 98 96 94 78 52 42 41 43 45 46 48 49 51 52 53 53 53 54 54 54 55 58
56 57 60 62 63 66 70 72 73 78 87 90 84 90 94 98 98 98 97 97 97 97 96 92 66 45 43 44 47 49 50 52 53 55 57 59 60 60 60 61 62 63 68
57 59 62 64 64 70 74 78 80 81 82 88 91 93 96 98 97 97 97 97 98 97 96 74 46 43 43 48 50 52 54 56 58 59 61 63 65 66 67 68 69 71 79
58 59 54 47 55 65 72 75 75 83 90 95 98 98 96 97 97 96 97 98 99 96 70 43 42 44 50 52 54 56 58 59 62 62 64 66 68 70 72 76 78 81 82
56 47 42 51 64 74 82 79 87 92 95 98 96 95 96 97 97 99 100 100 92 54 40 42 44 50 53 56 58 61 63 65 66 67 68 70 70 72 76 83 85 87 89
48 43 53 69 83 88 85 88 93 95 96 95 94 94 97 99 100 100 97 64 41 39 42 46 52 54 56 60 62 66 68 70 71 72 72 73 74 77 85 93 95 95 100